Location: Peterborough
(44.3091°N, 78.3197°W)
Time: 17:43:27
(UTC-04:00)

Transit 4A - Pass Details

Date: 29 March 2023
Orbit: 864 x 980 km, 66.8° (Epoch: 04 June)

Event Time Altitude Azimuth Distance (km) Brightness Sun altitude
Rises 16:38:32 0° 318° (NW) 3,583 11.1 30.1°
Reaches altitude 10° 16:41:24 10° 307° (NW) 2,655 10.7 29.6°
Maximum altitude 16:46:27 27° 252° (WSW) 1,746 12.1 28.8°
Drops below altitude 10° 16:51:35 10° 197° (SSW) 2,697 11.0 28.0°
Sets 16:54:32 0° 186° (S) 3,651 11.4 27.5°
